Torna al catalogo

STARLINK-31089

AttivoComunicazioniVLEO
NORAD 58610·PAYLOAD·🇺🇸 United States

Lanciato Dec 19, 2023 da Cape Canaveral Space Force Station

Loading…

Prossimi Passaggi (prossime 24 ore)

TLE

AggiornatoSource: CelesTrak SupGP

Epoca: Sep 15, 2026, 01:51 UTC

1 58610C 23200X   26258.07756944  .00020122  00000+0  72880-3 0  2584
2 58610  43.0008 179.5375 0001270 273.0839  18.4437 15.27569961    15

Traccia STARLINK-31089 in tempo reale con AllMySat

Download on the App Store